SCP
0 0 0 0 0 0 0 0 0 0 0 0 0 0 0 0 0 0 0 0 0 0 0 0 0 0 0 -0 -0 -0 -0 -0 0 0 0 0 0 0 0 0 0 0 0 0
0 0 0 0 0 0 0 0 0 0 0 0 0 0 0 0 0 0 0 0 0 0 0 0 0 0 0 0 0 0 0 0 -0 -0 0 0 0 0 0 0 0 0 0 0
0 0 0 0 0 0 0 0 0 0 0 0 0 0 0 0 0 0 0 0 0 0 0 0 0 0 0 0 0 0 0 0 0 0 0 0 0 0 0 0 0 0 0 0
0 0 0 0 0 0 0 0 0 0 0 0 0 0 0 0 0 0 0 0 0 0 0 0 0 0 0 0 0 0 0 0 0 0 0 0 0 0 0 0 0 0 0 0
0 0 0 0 0 -0 0 0 0 0 0 0 0 0 0 0 0 0 0 0 0 0 0 0 0 0 0 0 0 0 0 0 0 -0 0 0 0 0 0 0 0 0 0 0
0 0 0 0 0 0 0 0 0 0 0 0 0 0 0 0 0 0 0 0 0 0 0 0 0 0 0 0 -0 0 0 0 0 0 0 0 0 0 0 0 0 0 0 0
0 0 0 0 0 0 0 0 0 0 0 0 0 0 0 0 0 0 0 0 0 0 0 0 0 0 0 0 -0 -0 0 0 0 0 0 0 0 0 0 0 0 0 0 0
0 0 0 0 0 0 0 0 0 0 0 0 0 0 0 0 0 0 0 0 0 0 0 0 0 0 0 -0 -0 -0 0 0 0 0 0 0 0 0 0 0 0 0 0 0
0 0 0 0 0 0 0 0 -0 0 0 0 0 0 0 0 0 0 0 0 0 0 0 -0 0 0 0 0 -0 0 -0 -0 0 0 0 0 0 0 0 0 0 0 0 0
0 0 0 0 0 0 -0 0 0 0 0 0 0 0 0 0 0 0 0 0 0 0 -0 0 -0 -0 0 0 0 0 0 0 -0 -0 0 0 0 -0 -0 0 0 0 0 0
0 0 0 0 0 0 -0 -0 0 0 0 -0 0 0 0 0 0 0 0 0 0 0 0 -0 -0 0 0 0 0 0 0 0 0 0 -0 -0 -0 0 -0 0 -0 -0 -0 -0
0 0 0 0 0 0 0 0 0 0 0 -0 0 0 0 0 0 0 -0 0 0 0 -0 -0 -0 0 -0 0 -0 0 0 0 0 -0 -0 -0 -0 -0 -0 -0 -0 -0 0 0
0 0 0 0 0 0 0 -0 0 0 0 0 0 0 0 0 0 0 0 0 0 0 0 0 0 0 0 -0 0 0 0 0 0 0 0 0 0 0 0 0 0 0 0 0
0 0 0 0 0 0 0 0 0 0 0 0 0 0 0 0 0 0 0 0 0 0 0 0 0 0 0 0 0 0 0 0 0 0 0 0 0 0 0 0 0 0 0 0
0 0 0 0 0 0 0 0 0 0 0 0 0 0 0 0 0 0 0 0 0 -0 -0 -0 -0 0 0 0 -0 0 0 0 0 0 0 0 0 0 0 0 0 0 0 0
0 0 0 0 0 0 0 0 0 0 0 0 0 0 0 0 0 0 0 0 0 0 0 -0 -0 -0 -0 0 0 0 0 0 0 0 0 0 0 0 0 0 0 0 0 0
0 0 0 0 0 0 0 0 0 -0 0 0 0 0 0 0 0 0 0 0 0 0 0 0 0 0 0 0 0 0 0 0 0 0 0 0 0 0 0 0 0 0 0 0
0 0 0 0 0 0 0 0 0 0 0 0 0 0 0 0 0 0 0 0 0 0 0 0 0 0 0 0 0 0 0 0 0 0 0 0 0 0 0 0 0 0 0 0
0 0 0 0 0 0 0 0 0 0 0 0 0 0 0 0 0 0 0 0 0 0 0 0 0 0 0 0 0 -0 -0 0 0 0 0 0 0 0 0 0 0 0 0 0
0 0 0 0 0 0 0 0 0 0 0 0 0 0 0 0 0 0 0 0 0 0 0 0 0 0 0 0 0 0 0 0 0 -0 -0 0 0 0 0 0 0 0 0 0
0 0 0 0 0 0 0 0 0 0 0 0 0 0 0 0 0 0 0 0 0 0 0 0 0 0 0 0 0 0 0 0 0 0 0 0 0 0 0 0 0 0 0 0
0 0 0 0 0 0 0 0 0 0 0 0 0 0 0 0 0 0 0 0 0 0 0 0 0 0 0 -0 0 0 0 0 0 0 0 0 0 0 0 0 0 0 0 0
0 0 0 0 0 0 0 0 0 0 0 0 0 0 0 0 0 0 0 0 0 0 0 0 0 0 0 0 0 0 0 0 0 0 0 0 0 0 0 0 0 0 0 0
0 0 0 0 0 0 0 0 0 0 0 0 0 0 0 0 0 0 0 0 0 0 0 0 0 0 0 0 0 0 0 0 0 0 0 0 0 0 0 0 0 0 0 0
0 0 0 0 0 0 0 0 0 0 0 0 0 0 0 0 0 0 0 0 0 0 0 0 0 0 0 0 0 0 0 0 0 0 0 0 0 0 0 0 0 0 0 0
-0 0 0 0 0 0 0 0 0 0 0 0 0 0 0 0 0 0 0 0 0 0 0 0 0 0 0 0 0 0 0 0 0 0 0 0 0 0 0 0 0 0 0 0
0 0 0 0 0 0 0 0 0 0 0 0 0 0 0 0 0 0 0 0 0 0 0 0 0 0 0 0 0 0 0 0 0 0 0 0 0 0 0 0 0 0 0 0
Wind_Speed_500mb
47 46 46 47 49 48 33 12 2 40 26 3 10 7 15 33 33 36 13 16 16 17 20 12 13 17 24 56 37 21 12 9 12 12 12 6 13 12 14 10 11 14 11 6
40 41 43 45 46 46 26 8 8 27 24 7 7 16 10 21 29 24 16 12 16 25 11 12 16 21 32 56 42 35 19 6 10 6 5 24 18 32 16 12 8 5 6 9
38 41 45 44 39 37 21 9 4 18 31 15 8 10 12 18 29 8 20 9 16 23 9 10 11 18 16 42 41 46 12 11 7 3 8 4 12 41 36 7 4 6 9 35
44 46 46 44 35 28 13 12 8 11 8 15 11 15 11 13 18 18 24 12 20 24 9 14 10 12 20 23 45 26 9 9 15 21 24 41 39 34 38 48 18 8 23 30
44 46 44 43 40 24 28 9 7 14 9 19 14 20 10 12 12 7 9 6 28 22 7 1 12 16 9 6 18 18 21 9 9 9 18 47 39 44 29 26 25 30 34 24
46 48 50 46 42 32 17 16 16 10 20 10 4 5 9 10 19 15 22 13 13 14 7 28 49 40 30 7 4 15 16 4 6 3 7 8 19 34 30 19 31 7 10 10
50 51 51 53 53 45 25 22 15 10 4 7 1 8 11 9 8 7 22 21 7 13 62 49 13 21 23 13 12 16 22 13 7 6 14 14 5 4 6 23 21 22 21 13
56 56 56 59 56 49 34 16 11 9 6 17 9 27 10 24 9 5 10 16 26 48 35 7 11 8 11 5 13 29 24 10 4 6 11 10 4 11 11 11 9 8 6 6
54 56 58 55 55 46 35 37 23 15 16 16 17 11 21 7 9 11 6 25 24 32 5 8 11 10 8 14 30 26 30 28 8 8 11 9 5 13 18 11 4 4 8 9
46 48 51 52 49 46 40 44 22 15 24 20 23 11 7 15 14 7 6 26 30 39 10 7 8 6 5 10 14 15 16 11 16 14 8 3 7 25 23 7 5 5 5 8
46 48 46 42 44 41 38 44 31 45 28 27 29 30 23 13 13 5 20 13 14 16 11 7 4 7 3 5 5 5 6 6 7 10 12 9 16 16 9 7 15 15 14 17
42 42 44 41 33 38 37 33 31 39 36 18 27 35 36 33 23 13 16 6 6 8 4 7 6 7 9 3 9 4 8 7 4 7 8 10 21 14 16 16 19 20 21 24
44 44 40 37 35 28 35 35 19 13 16 21 23 20 27 38 39 30 9 10 12 9 9 6 3 10 2 6 5 5 2 9 3 10 8 13 20 20 21 22 28 30 30 31
36 40 38 34 34 29 21 37 32 14 10 6 9 31 24 28 37 37 26 15 11 14 16 13 6 6 9 2 3 2 2 3 7 10 10 35 1 25 33 33 36 40 40 39
34 36 32 31 30 32 17 20 41 23 6 5 6 8 41 26 20 32 31 24 17 12 10 9 2 3 3 4 4 10 28 9 5 7 33 19 44 47 54 57 50 44 44 48
31 31 25 29 29 33 16 16 24 23 8 6 3 4 25 32 14 16 19 22 18 13 9 6 6 6 2 5 5 20 27 39 39 24 46 52 61 54 35 48 55 53 52 52
25 23 18 25 25 28 24 15 25 16 7 5 7 4 14 41 23 15 16 17 14 10 7 7 4 4 4 3 5 48 45 46 50 33 50 47 28 51 64 62 56 52 52 52
17 16 13 19 20 20 23 24 32 22 13 13 7 10 9 40 17 15 24 15 7 14 7 6 7 8 2 4 23 54 44 57 48 50 50 54 56 58 60 52 52 55 56 57
14 12 13 14 23 16 17 16 20 26 23 12 11 8 8 29 20 14 14 11 4 7 8 4 7 3 6 12 50 55 62 50 62 64 57 45 51 54 55 56 58 60 66 64
17 15 10 11 21 19 14 12 16 17 17 15 10 14 6 22 17 9 21 9 2 4 2 12 1 4 8 35 53 52 58 60 61 65 65 66 62 62 63 59 57 54 60 64
11 9 12 16 23 18 14 17 19 19 11 17 15 18 12 17 6 7 14 5 6 5 6 4 2 3 20 56 62 59 58 57 60 56 59 57 57 61 63 65 63 59 59 60
18 12 16 18 18 18 15 8 12 13 5 22 17 25 14 10 9 6 9 3 4 5 14 3 4 1 50 67 67 70 66 66 65 63 65 58 58 57 58 57 58 57 57 57
14 11 11 15 20 18 12 16 10 9 24 23 35 16 15 10 8 8 5 9 5 19 3 1 4 45 65 71 71 72 69 69 65 75 67 62 61 60 57 60 57 56 57 56
13 13 15 9 11 7 5 5 13 21 28 45 36 13 8 8 7 4 7 6 4 10 10 6 18 64 77 74 74 73 75 72 70 74 68 66 67 65 60 62 63 60 59 59
12 13 9 6 6 16 23 27 28 28 38 24 12 10 6 5 6 2 7 15 9 4 6 10 64 77 76 78 78 77 76 75 74 76 67 69 64 64 65 63 64 58 56 57
13 15 11 11 10 31 35 40 43 46 37 15 8 6 8 9 1 12 7 7 7 9 32 69 75 78 80 80 82 83 75 74 76 73 68 68 61 60 66 61 63 67 52 55
11 13 26 24 16 23 27 35 45 39 28 15 10 11 5 12 7 10 4 4 14 63 73 73 73 77 83 81 83 81 78 82 76 72 73 68 59 60 62 63 71 66 53 58
Wind_Direction_500mb
347 352 353 353 352 357 6 50 354 4 7 29 16 28 350 341 360 8 329 344 347 348 342 289 301 352 360 9 7 345 279 284 291 280 337 19 59 15 215 218 199 214 104 134
0 0 0 359 359 1 16 57 28 11 33 49 4 357 346 350 3 6 354 327 3 359 296 302 21 355 339 3 8 338 347 19 316 261 170 27 39 351 311 285 276 212 193 171
11 9 6 4 5 7 48 24 6 28 56 58 340 10 0 345 348 17 352 337 356 338 320 13 311 340 343 352 356 353 48 27 19 32 336 269 32 3 352 333 337 67 24 135
17 13 12 13 14 18 66 55 58 23 9 9 355 20 34 325 0 353 357 357 5 340 296 329 7 358 325 337 351 351 32 70 76 104 90 72 50 36 12 42 19 38 132 115
26 25 25 22 18 26 52 62 25 57 37 341 350 11 21 343 338 329 326 354 327 314 267 113 311 343 18 28 324 3 338 125 153 148 103 72 50 29 32 19 33 64 81 73
35 33 32 31 32 41 67 80 84 105 16 12 18 347 323 321 343 276 258 330 304 314 355 310 284 274 274 267 336 340 338 318 246 217 237 310 21 14 29 44 38 359 63 83
42 41 39 39 38 40 56 77 92 82 17 36 25 350 314 310 292 247 296 312 297 299 314 311 283 249 245 218 298 15 326 314 339 348 348 49 249 337 41 73 36 43 63 52
44 42 41 41 41 40 40 58 94 105 89 323 359 346 332 323 2 252 246 306 307 317 318 329 20 22 29 343 7 359 347 295 63 87 45 165 113 17 3 8 45 23 48 40
43 41 40 40 40 39 43 63 78 100 120 5 317 326 350 342 333 327 265 334 341 346 270 17 38 33 301 336 338 352 343 7 48 42 62 47 7 352 356 321 68 68 17 3
41 38 40 42 43 41 47 58 65 90 95 30 33 25 306 332 304 254 313 340 348 4 5 56 26 23 199 6 7 335 338 350 32 27 86 14 322 316 312 28 261 342 306 307
38 36 36 38 41 40 33 62 66 85 96 67 54 45 36 355 349 352 319 342 10 356 44 45 5 50 290 69 217 304 3 359 8 347 46 357 358 336 74 255 299 279 289 299
29 27 28 28 32 39 38 57 62 71 81 89 56 41 33 28 16 355 27 77 38 1 342 14 38 27 5 209 7 340 23 156 223 128 217 259 304 264 280 286 283 291 294 292
17 15 20 19 20 26 36 41 38 58 83 69 41 18 26 33 33 32 41 43 25 27 43 353 156 77 8 22 355 298 179 177 234 17 278 266 292 295 305 302 293 302 292 285
10 10 8 14 12 14 30 34 34 49 98 105 61 33 28 23 36 37 37 45 59 44 34 49 47 87 8 1 229 341 271 240 307 269 316 340 115 329 321 308 300 297 298 292
1 7 10 14 11 9 21 32 33 35 57 80 136 33 26 14 13 27 32 45 51 29 44 40 53 79 44 193 40 45 357 340 345 280 307 284 289 314 311 308 309 309 303 297
357 6 14 16 18 11 22 18 14 12 54 91 120 93 30 19 16 18 24 25 45 58 65 83 47 23 332 57 25 10 343 354 324 285 300 302 306 306 320 312 317 312 302 297
358 5 13 17 25 28 52 49 1 24 45 76 113 112 11 12 20 359 18 21 38 61 74 63 23 13 321 70 350 347 332 352 340 338 332 313 316 310 311 312 314 312 305 303
5 15 26 23 26 38 42 35 26 23 56 57 49 322 317 8 358 3 3 5 17 38 62 48 11 307 7 40 357 345 343 343 345 332 329 315 317 316 319 319 318 312 309 312
34 46 41 24 22 20 6 19 31 43 54 83 64 354 315 345 9 345 347 359 22 34 43 41 332 174 44 359 352 347 346 336 334 336 332 328 323 320 320 320 317 314 312 313
54 39 34 32 2 3 12 20 14 29 39 53 81 348 310 336 338 13 2 7 41 25 320 333 285 92 30 358 350 343 342 340 339 336 334 331 326 327 325 323 319 313 310 312
49 44 47 19 20 25 31 26 29 3 50 18 10 12 328 341 8 322 357 312 315 26 312 63 298 88 360 351 346 343 340 338 336 335 330 327 324 324 324 323 322 321 320 317
75 85 55 25 28 25 44 358 7 38 11 353 359 335 335 317 335 294 347 327 344 338 328 10 24 323 352 345 341 338 338 335 336 333 333 332 331 330 326 325 325 325 323 322
56 48 48 23 21 31 43 354 330 336 347 349 340 327 331 335 340 294 327 19 288 312 335 251 194 349 342 339 336 334 334 334 334 332 337 335 333 335 336 334 333 331 330 332
52 45 28 64 2 27 8 288 299 302 310 323 327 307 323 323 325 321 15 267 45 13 0 298 339 334 331 332 333 332 331 333 332 331 336 335 334 334 337 343 336 334 330 329
64 55 58 64 42 4 353 354 349 330 334 326 329 295 308 297 353 314 6 2 342 8 296 308 324 323 324 326 329 330 328 329 328 332 333 330 336 338 335 334 338 331 330 335
57 59 68 87 29 10 13 3 355 352 355 351 345 300 23 9 9 16 4 10 283 307 324 315 318 320 321 324 325 327 326 328 327 333 329 329 332 338 340 332 328 338 334 335
58 68 89 101 57 28 15 8 360 2 7 9 348 40 300 304 8 349 14 344 309 310 310 312 315 316 319 323 324 326 327 327 331 328 329 331 330 325 327 340 336 337 332 328
Wind_Speed_850mb
47 46 46 47 49 48 33 12 2 40 26 3 10 7 15 33 33 36 13 16 16 17 20 12 13 17 24 56 37 21 12 9 12 12 12 6 13 12 14 10 11 14 11 6
40 41 43 45 46 46 26 8 8 27 24 7 7 16 10 21 29 24 16 12 16 25 11 12 16 21 32 56 42 35 19 6 10 6 5 24 18 32 16 12 8 5 6 9
38 41 45 44 39 37 21 9 4 18 31 15 8 10 12 18 29 8 20 9 16 23 9 10 11 18 16 42 41 46 12 11 7 3 8 4 12 41 36 7 4 6 9 35
44 46 46 44 35 28 13 12 8 11 8 15 11 15 11 13 18 18 24 12 20 24 9 14 10 12 20 23 45 26 9 9 15 21 24 41 39 34 38 48 18 8 23 30
44 46 44 43 40 24 28 9 7 14 9 19 14 20 10 12 12 7 9 6 28 22 7 1 12 16 9 6 18 18 21 9 9 9 18 47 39 44 29 26 25 30 34 24
46 48 50 46 42 32 17 16 16 10 20 10 4 5 9 10 19 15 22 13 13 14 7 28 49 40 30 7 4 15 16 4 6 3 7 8 19 34 30 19 31 7 10 10
50 51 51 53 53 45 25 22 15 10 4 7 1 8 11 9 8 7 22 21 7 13 62 49 13 21 23 13 12 16 22 13 7 6 14 14 5 4 6 23 21 22 21 13
56 56 56 59 56 49 34 16 11 9 6 17 9 27 10 24 9 5 10 16 26 48 35 7 11 8 11 5 13 29 24 10 4 6 11 10 4 11 11 11 9 8 6 6
54 56 58 55 55 46 35 37 23 15 16 16 17 11 21 7 9 11 6 25 24 32 5 8 11 10 8 14 30 26 30 28 8 8 11 9 5 13 18 11 4 4 8 9
46 48 51 52 49 46 40 44 22 15 24 20 23 11 7 15 14 7 6 26 30 39 10 7 8 6 5 10 14 15 16 11 16 14 8 3 7 25 23 7 5 5 5 8
46 48 46 42 44 41 38 44 31 45 28 27 29 30 23 13 13 5 20 13 14 16 11 7 4 7 3 5 5 5 6 6 7 10 12 9 16 16 9 7 15 15 14 17
42 42 44 41 33 38 37 33 31 39 36 18 27 35 36 33 23 13 16 6 6 8 4 7 6 7 9 3 9 4 8 7 4 7 8 10 21 14 16 16 19 20 21 24
44 44 40 37 35 28 35 35 19 13 16 21 23 20 27 38 39 30 9 10 12 9 9 6 3 10 2 6 5 5 2 9 3 10 8 13 20 20 21 22 28 30 30 31
36 40 38 34 34 29 21 37 32 14 10 6 9 31 24 28 37 37 26 15 11 14 16 13 6 6 9 2 3 2 2 3 7 10 10 35 1 25 33 33 36 40 40 39
34 36 32 31 30 32 17 20 41 23 6 5 6 8 41 26 20 32 31 24 17 12 10 9 2 3 3 4 4 10 28 9 5 7 33 19 44 47 54 57 50 44 44 48
31 31 25 29 29 33 16 16 24 23 8 6 3 4 25 32 14 16 19 22 18 13 9 6 6 6 2 5 5 20 27 39 39 24 46 52 61 54 35 48 55 53 52 52
25 23 18 25 25 28 24 15 25 16 7 5 7 4 14 41 23 15 16 17 14 10 7 7 4 4 4 3 5 48 45 46 50 33 50 47 28 51 64 62 56 52 52 52
17 16 13 19 20 20 23 24 32 22 13 13 7 10 9 40 17 15 24 15 7 14 7 6 7 8 2 4 23 54 44 57 48 50 50 54 56 58 60 52 52 55 56 57
14 12 13 14 23 16 17 16 20 26 23 12 11 8 8 29 20 14 14 11 4 7 8 4 7 3 6 12 50 55 62 50 62 64 57 45 51 54 55 56 58 60 66 64
17 15 10 11 21 19 14 12 16 17 17 15 10 14 6 22 17 9 21 9 2 4 2 12 1 4 8 35 53 52 58 60 61 65 65 66 62 62 63 59 57 54 60 64
11 9 12 16 23 18 14 17 19 19 11 17 15 18 12 17 6 7 14 5 6 5 6 4 2 3 20 56 62 59 58 57 60 56 59 57 57 61 63 65 63 59 59 60
18 12 16 18 18 18 15 8 12 13 5 22 17 25 14 10 9 6 9 3 4 5 14 3 4 1 50 67 67 70 66 66 65 63 65 58 58 57 58 57 58 57 57 57
14 11 11 15 20 18 12 16 10 9 24 23 35 16 15 10 8 8 5 9 5 19 3 1 4 45 65 71 71 72 69 69 65 75 67 62 61 60 57 60 57 56 57 56
13 13 15 9 11 7 5 5 13 21 28 45 36 13 8 8 7 4 7 6 4 10 10 6 18 64 77 74 74 73 75 72 70 74 68 66 67 65 60 62 63 60 59 59
12 13 9 6 6 16 23 27 28 28 38 24 12 10 6 5 6 2 7 15 9 4 6 10 64 77 76 78 78 77 76 75 74 76 67 69 64 64 65 63 64 58 56 57
13 15 11 11 10 31 35 40 43 46 37 15 8 6 8 9 1 12 7 7 7 9 32 69 75 78 80 80 82 83 75 74 76 73 68 68 61 60 66 61 63 67 52 55
11 13 26 24 16 23 27 35 45 39 28 15 10 11 5 12 7 10 4 4 14 63 73 73 73 77 83 81 83 81 78 82 76 72 73 68 59 60 62 63 71 66 53 58
Wind_Direction_850mb
347 352 353 353 352 357 6 50 354 4 7 29 16 28 350 341 360 8 329 344 347 348 342 289 301 352 360 9 7 345 279 284 291 280 337 19 59 15 215 218 199 214 104 134
0 0 0 359 359 1 16 57 28 11 33 49 4 357 346 350 3 6 354 327 3 359 296 302 21 355 339 3 8 338 347 19 316 261 170 27 39 351 311 285 276 212 193 171
11 9 6 4 5 7 48 24 6 28 56 58 340 10 0 345 348 17 352 337 356 338 320 13 311 340 343 352 356 353 48 27 19 32 336 269 32 3 352 333 337 67 24 135
17 13 12 13 14 18 66 55 58 23 9 9 355 20 34 325 0 353 357 357 5 340 296 329 7 358 325 337 351 351 32 70 76 104 90 72 50 36 12 42 19 38 132 115
26 25 25 22 18 26 52 62 25 57 37 341 350 11 21 343 338 329 326 354 327 314 267 113 311 343 18 28 324 3 338 125 153 148 103 72 50 29 32 19 33 64 81 73
35 33 32 31 32 41 67 80 84 105 16 12 18 347 323 321 343 276 258 330 304 314 355 310 284 274 274 267 336 340 338 318 246 217 237 310 21 14 29 44 38 359 63 83
42 41 39 39 38 40 56 77 92 82 17 36 25 350 314 310 292 247 296 312 297 299 314 311 283 249 245 218 298 15 326 314 339 348 348 49 249 337 41 73 36 43 63 52
44 42 41 41 41 40 40 58 94 105 89 323 359 346 332 323 2 252 246 306 307 317 318 329 20 22 29 343 7 359 347 295 63 87 45 165 113 17 3 8 45 23 48 40
43 41 40 40 40 39 43 63 78 100 120 5 317 326 350 342 333 327 265 334 341 346 270 17 38 33 301 336 338 352 343 7 48 42 62 47 7 352 356 321 68 68 17 3
41 38 40 42 43 41 47 58 65 90 95 30 33 25 306 332 304 254 313 340 348 4 5 56 26 23 199 6 7 335 338 350 32 27 86 14 322 316 312 28 261 342 306 307
38 36 36 38 41 40 33 62 66 85 96 67 54 45 36 355 349 352 319 342 10 356 44 45 5 50 290 69 217 304 3 359 8 347 46 357 358 336 74 255 299 279 289 299
29 27 28 28 32 39 38 57 62 71 81 89 56 41 33 28 16 355 27 77 38 1 342 14 38 27 5 209 7 340 23 156 223 128 217 259 304 264 280 286 283 291 294 292
17 15 20 19 20 26 36 41 38 58 83 69 41 18 26 33 33 32 41 43 25 27 43 353 156 77 8 22 355 298 179 177 234 17 278 266 292 295 305 302 293 302 292 285
10 10 8 14 12 14 30 34 34 49 98 105 61 33 28 23 36 37 37 45 59 44 34 49 47 87 8 1 229 341 271 240 307 269 316 340 115 329 321 308 300 297 298 292
1 7 10 14 11 9 21 32 33 35 57 80 136 33 26 14 13 27 32 45 51 29 44 40 53 79 44 193 40 45 357 340 345 280 307 284 289 314 311 308 309 309 303 297
357 6 14 16 18 11 22 18 14 12 54 91 120 93 30 19 16 18 24 25 45 58 65 83 47 23 332 57 25 10 343 354 324 285 300 302 306 306 320 312 317 312 302 297
358 5 13 17 25 28 52 49 1 24 45 76 113 112 11 12 20 359 18 21 38 61 74 63 23 13 321 70 350 347 332 352 340 338 332 313 316 310 311 312 314 312 305 303
5 15 26 23 26 38 42 35 26 23 56 57 49 322 317 8 358 3 3 5 17 38 62 48 11 307 7 40 357 345 343 343 345 332 329 315 317 316 319 319 318 312 309 312
34 46 41 24 22 20 6 19 31 43 54 83 64 354 315 345 9 345 347 359 22 34 43 41 332 174 44 359 352 347 346 336 334 336 332 328 323 320 320 320 317 314 312 313
54 39 34 32 2 3 12 20 14 29 39 53 81 348 310 336 338 13 2 7 41 25 320 333 285 92 30 358 350 343 342 340 339 336 334 331 326 327 325 323 319 313 310 312
49 44 47 19 20 25 31 26 29 3 50 18 10 12 328 341 8 322 357 312 315 26 312 63 298 88 360 351 346 343 340 338 336 335 330 327 324 324 324 323 322 321 320 317
75 85 55 25 28 25 44 358 7 38 11 353 359 335 335 317 335 294 347 327 344 338 328 10 24 323 352 345 341 338 338 335 336 333 333 332 331 330 326 325 325 325 323 322
56 48 48 23 21 31 43 354 330 336 347 349 340 327 331 335 340 294 327 19 288 312 335 251 194 349 342 339 336 334 334 334 334 332 337 335 333 335 336 334 333 331 330 332
52 45 28 64 2 27 8 288 299 302 310 323 327 307 323 323 325 321 15 267 45 13 0 298 339 334 331 332 333 332 331 333 332 331 336 335 334 334 337 343 336 334 330 329
64 55 58 64 42 4 353 354 349 330 334 326 329 295 308 297 353 314 6 2 342 8 296 308 324 323 324 326 329 330 328 329 328 332 333 330 336 338 335 334 338 331 330 335
57 59 68 87 29 10 13 3 355 352 355 351 345 300 23 9 9 16 4 10 283 307 324 315 318 320 321 324 325 327 326 328 327 333 329 329 332 338 340 332 328 338 334 335
58 68 89 101 57 28 15 8 360 2 7 9 348 40 300 304 8 349 14 344 309 310 310 312 315 316 319 323 324 326 327 327 331 328 329 331 330 325 327 340 336 337 332 328